Year,Month,Day,Hour,Minute,Value (Times are PST for temperature in C)
2018,10,23,00,00,6.80
2018,10,23,00,01,6.80
2018,10,23,00,02,6.80
2018,10,23,00,03,6.80
2018,10,23,00,04,6.80
2018,10,23,00,05,6.70
2018,10,23,00,06,6.70
2018,10,23,00,07,6.70
2018,10,23,00,08,6.70
2018,10,23,00,09,6.70
2018,10,23,00,10,6.70
2018,10,23,00,11,6.70
2018,10,23,00,12,6.70
2018,10,23,00,13,6.70
2018,10,23,00,14,6.70
2018,10,23,00,15,6.70
2018,10,23,00,16,6.70
2018,10,23,00,17,6.70
2018,10,23,00,18,6.70
2018,10,23,00,19,6.70
2018,10,23,00,20,6.70
2018,10,23,00,21,6.70
2018,10,23,00,22,6.70
2018,10,23,00,23,6.70
2018,10,23,00,24,6.70
2018,10,23,00,25,6.70
2018,10,23,00,26,6.70
2018,10,23,00,27,6.70
2018,10,23,00,28,6.70
2018,10,23,00,29,6.70
2018,10,23,00,30,6.70
2018,10,23,00,31,6.70
2018,10,23,00,32,6.70
2018,10,23,00,33,6.70
2018,10,23,00,34,6.70
2018,10,23,00,35,6.70
2018,10,23,00,36,6.70
2018,10,23,00,37,6.70
2018,10,23,00,38,6.60
2018,10,23,00,39,6.60
2018,10,23,00,40,6.60
2018,10,23,00,41,6.60
2018,10,23,00,42,6.60
2018,10,23,00,43,6.60
2018,10,23,00,44,6.60
2018,10,23,00,45,6.60
2018,10,23,00,46,6.60
2018,10,23,00,47,6.60
2018,10,23,00,48,6.60
2018,10,23,00,49,6.60
2018,10,23,00,50,6.60
2018,10,23,00,51,6.60
2018,10,23,00,52,6.60
2018,10,23,00,53,6.60
2018,10,23,00,54,6.60
2018,10,23,00,55,6.60
2018,10,23,00,56,6.60
2018,10,23,00,57,6.50
2018,10,23,00,58,6.50
2018,10,23,00,59,6.50
2018,10,23,01,00,6.50
2018,10,23,01,01,6.50
2018,10,23,01,02,6.50
2018,10,23,01,03,6.50
2018,10,23,01,04,6.50
2018,10,23,01,05,6.50
2018,10,23,01,06,6.50
2018,10,23,01,07,6.50
2018,10,23,01,08,6.50
2018,10,23,01,09,6.50
2018,10,23,01,10,6.50
2018,10,23,01,11,6.50
2018,10,23,01,12,6.60
2018,10,23,01,13,6.50
2018,10,23,01,14,6.50
2018,10,23,01,15,6.50
2018,10,23,01,16,6.40
2018,10,23,01,17,6.40
2018,10,23,01,18,6.40
2018,10,23,01,19,6.40
2018,10,23,01,20,6.40
2018,10,23,01,21,6.40
2018,10,23,01,22,6.40
2018,10,23,01,23,6.40
2018,10,23,01,24,6.40
2018,10,23,01,25,6.40
2018,10,23,01,26,6.40
2018,10,23,01,27,6.30
2018,10,23,01,28,6.30
2018,10,23,01,29,6.30
2018,10,23,01,30,6.30
2018,10,23,01,31,6.30
2018,10,23,01,32,6.30
2018,10,23,01,33,6.30
2018,10,23,01,34,6.30
2018,10,23,01,35,6.30
2018,10,23,01,36,6.30
2018,10,23,01,37,6.30
2018,10,23,01,38,6.30
2018,10,23,01,39,6.30
2018,10,23,01,40,6.20
2018,10,23,01,41,6.20
2018,10,23,01,42,6.20
2018,10,23,01,43,6.20
2018,10,23,01,44,6.20
2018,10,23,01,45,6.20
2018,10,23,01,46,6.30
2018,10,23,01,47,6.30
2018,10,23,01,48,6.30
2018,10,23,01,49,6.30
2018,10,23,01,50,6.30
2018,10,23,01,51,6.30
2018,10,23,01,52,6.30
2018,10,23,01,53,6.30
2018,10,23,01,54,6.30
2018,10,23,01,55,6.30
2018,10,23,01,56,6.30
2018,10,23,01,57,6.30
2018,10,23,01,58,6.20
2018,10,23,01,59,6.20
2018,10,23,02,00,6.20
2018,10,23,02,01,6.20
2018,10,23,02,02,6.20
2018,10,23,02,03,6.20
2018,10,23,02,04,6.20
2018,10,23,02,05,6.20
2018,10,23,02,06,6.10
2018,10,23,02,07,6.10
2018,10,23,02,08,6.10
2018,10,23,02,09,6.10
2018,10,23,02,10,6.10
2018,10,23,02,11,6.10
2018,10,23,02,12,6.10
2018,10,23,02,13,6.10
2018,10,23,02,14,6.10
2018,10,23,02,15,6.10
2018,10,23,02,16,6.10
2018,10,23,02,17,6.10
2018,10,23,02,18,6.10
2018,10,23,02,19,6.10
2018,10,23,02,20,6.10
2018,10,23,02,21,6.10
2018,10,23,02,22,6.10
2018,10,23,02,23,6.10
2018,10,23,02,24,6.10
2018,10,23,02,25,6.10
2018,10,23,02,26,6.10
2018,10,23,02,27,6.10
2018,10,23,02,28,6.10
2018,10,23,02,29,6.00
2018,10,23,02,30,6.10
2018,10,23,02,31,6.10
2018,10,23,02,32,6.00
2018,10,23,02,33,6.00
2018,10,23,02,34,6.00
2018,10,23,02,35,6.00
2018,10,23,02,36,6.00
2018,10,23,02,37,6.00
2018,10,23,02,38,6.00
2018,10,23,02,39,6.00
2018,10,23,02,40,6.00
2018,10,23,02,41,6.00
2018,10,23,02,42,6.00
2018,10,23,02,43,6.00
2018,10,23,02,44,6.00
2018,10,23,02,45,6.00
2018,10,23,02,46,6.00
2018,10,23,02,47,5.90
2018,10,23,02,48,5.90
2018,10,23,02,49,5.90
2018,10,23,02,50,5.90
2018,10,23,02,51,5.90
2018,10,23,02,52,5.90
2018,10,23,02,53,5.90
2018,10,23,02,54,5.90
2018,10,23,02,55,5.90
2018,10,23,02,56,5.90
2018,10,23,02,57,5.90
2018,10,23,02,58,5.90
2018,10,23,02,59,5.90
2018,10,23,03,00,5.90
2018,10,23,03,01,5.90
2018,10,23,03,02,5.90
2018,10,23,03,03,5.80
2018,10,23,03,04,5.80
2018,10,23,03,05,5.80
2018,10,23,03,06,5.80
2018,10,23,03,07,5.80
2018,10,23,03,08,5.90
2018,10,23,03,09,5.90
2018,10,23,03,10,5.90
2018,10,23,03,11,5.90
2018,10,23,03,12,5.90
2018,10,23,03,13,5.90
2018,10,23,03,14,5.90
2018,10,23,03,15,5.90
2018,10,23,03,16,5.80
2018,10,23,03,17,5.80
2018,10,23,03,18,5.80
2018,10,23,03,19,5.80
2018,10,23,03,20,5.80
2018,10,23,03,21,5.80
2018,10,23,03,22,5.90
2018,10,23,03,23,5.90
2018,10,23,03,24,5.90
2018,10,23,03,25,5.90
2018,10,23,03,26,5.90
2018,10,23,03,27,5.90
2018,10,23,03,28,5.90
2018,10,23,03,29,5.80
2018,10,23,03,30,5.80
2018,10,23,03,31,5.80
2018,10,23,03,32,5.80
2018,10,23,03,33,5.80
2018,10,23,03,34,5.80
2018,10,23,03,35,5.80
2018,10,23,03,36,5.80
2018,10,23,03,37,5.80
2018,10,23,03,38,5.80
2018,10,23,03,39,5.80
2018,10,23,03,40,5.80
2018,10,23,03,41,5.80
2018,10,23,03,42,5.80
2018,10,23,03,43,5.80
2018,10,23,03,44,5.80
2018,10,23,03,45,5.80
2018,10,23,03,46,5.80
2018,10,23,03,47,5.80
2018,10,23,03,48,5.70
2018,10,23,03,49,5.70
2018,10,23,03,50,5.70
2018,10,23,03,51,5.60
2018,10,23,03,52,5.60
2018,10,23,03,53,5.60
2018,10,23,03,54,5.60
2018,10,23,03,55,5.60
2018,10,23,03,56,5.60
2018,10,23,03,57,5.60
2018,10,23,03,58,5.50
2018,10,23,03,59,5.50
2018,10,23,04,00,5.50
2018,10,23,04,01,5.50
2018,10,23,04,02,5.50
2018,10,23,04,03,5.50
2018,10,23,04,04,5.50
2018,10,23,04,05,5.50
2018,10,23,04,06,5.50
2018,10,23,04,07,5.50
2018,10,23,04,08,5.50
2018,10,23,04,09,5.50
2018,10,23,04,10,5.50
2018,10,23,08,33,7.60
2018,10,23,08,34,7.60
2018,10,23,08,35,7.70
2018,10,23,08,36,7.70
2018,10,23,08,37,7.70
2018,10,23,08,38,7.70
2018,10,23,08,39,7.80
2018,10,23,08,40,7.80
2018,10,23,08,41,7.80
2018,10,23,08,42,7.80
2018,10,23,08,43,7.80
2018,10,23,08,44,7.80
2018,10,23,08,45,7.80
2018,10,23,08,46,7.90
2018,10,23,08,47,7.90
2018,10,23,08,48,7.90
2018,10,23,08,49,7.90
2018,10,23,08,50,7.90
2018,10,23,08,51,8.00
2018,10,23,08,52,8.00
2018,10,23,08,53,8.00
2018,10,23,08,54,8.00
2018,10,23,08,55,8.00
2018,10,23,08,56,7.90
2018,10,23,08,57,7.90
2018,10,23,08,58,7.90
2018,10,23,08,59,7.80
2018,10,23,09,00,7.80
2018,10,23,09,01,7.80
2018,10,23,09,02,7.70
2018,10,23,09,03,7.70
2018,10,23,09,04,7.70
2018,10,23,09,05,7.70
2018,10,23,09,06,7.70
2018,10,23,09,07,7.60
2018,10,23,09,08,7.60
2018,10,23,09,09,7.50
2018,10,23,09,10,7.50
2018,10,23,09,11,7.40
2018,10,23,09,12,7.40
2018,10,23,09,13,7.30
2018,10,23,09,14,7.30
2018,10,23,09,15,7.30
2018,10,23,09,16,7.30
2018,10,23,09,17,7.30
2018,10,23,09,18,7.30
2018,10,23,09,19,7.30
2018,10,23,09,20,7.30
2018,10,23,09,21,7.30
2018,10,23,09,22,7.30
2018,10,23,09,23,7.30
2018,10,23,09,24,7.30
2018,10,23,09,25,7.40
2018,10,23,09,26,7.40
2018,10,23,09,27,7.40
2018,10,23,09,28,7.50
2018,10,23,09,29,7.50
2018,10,23,09,30,7.50
2018,10,23,09,31,7.50
2018,10,23,09,32,7.50
2018,10,23,09,33,7.50
2018,10,23,09,34,7.60
2018,10,23,09,35,7.60
2018,10,23,09,36,7.60
2018,10,23,09,37,7.60
2018,10,23,09,38,7.60
2018,10,23,09,39,7.60
2018,10,23,09,40,7.60
2018,10,23,09,41,7.70
2018,10,23,09,42,7.70
2018,10,23,09,43,7.70
2018,10,23,09,44,7.70
2018,10,23,09,45,7.70
2018,10,23,09,46,7.70
2018,10,23,09,47,7.70
2018,10,23,09,48,7.70
2018,10,23,09,49,7.70
2018,10,23,09,50,7.70
2018,10,23,09,51,7.70
2018,10,23,09,52,7.80
2018,10,23,09,53,7.80
2018,10,23,09,54,7.80
2018,10,23,09,55,7.80
2018,10,23,09,56,7.80
2018,10,23,09,57,7.80
2018,10,23,09,58,7.80
2018,10,23,09,59,7.80
2018,10,23,10,00,7.90
2018,10,23,10,01,7.90
2018,10,23,10,02,7.90
2018,10,23,10,03,7.90
2018,10,23,10,04,7.90
2018,10,23,10,05,7.90
2018,10,23,10,06,7.90
2018,10,23,10,07,7.90
2018,10,23,10,08,7.90
2018,10,23,10,09,7.90
2018,10,23,10,10,7.90
2018,10,23,10,11,7.90
2018,10,23,10,12,7.90
2018,10,23,10,13,7.90
2018,10,23,10,14,7.90
2018,10,23,10,15,7.90
2018,10,23,10,16,7.90
2018,10,23,10,17,7.90
2018,10,23,10,18,8.00
2018,10,23,10,19,8.00
2018,10,23,10,20,8.00
2018,10,23,10,21,8.00
2018,10,23,10,22,8.10
2018,10,23,10,23,8.10
2018,10,23,10,24,8.10
2018,10,23,10,25,8.10
2018,10,23,10,26,8.10
2018,10,23,10,27,8.10
2018,10,23,10,28,8.10
2018,10,23,10,29,8.10
2018,10,23,10,30,8.10
2018,10,23,10,31,8.10
2018,10,23,10,32,8.10
2018,10,23,10,33,8.00
2018,10,23,10,34,8.00
2018,10,23,10,35,8.10
2018,10,23,10,36,8.10
2018,10,23,10,37,8.10
2018,10,23,10,38,8.10
2018,10,23,10,39,8.00
2018,10,23,10,40,8.00
2018,10,23,10,41,8.00
2018,10,23,10,42,8.10
2018,10,23,10,43,8.10
2018,10,23,10,44,8.10
2018,10,23,10,45,8.10
2018,10,23,10,46,8.10
2018,10,23,10,47,8.10
2018,10,23,10,48,8.10
2018,10,23,10,49,8.10
2018,10,23,10,50,8.10
2018,10,23,10,51,8.10
2018,10,23,10,52,8.10
2018,10,23,10,53,8.10
2018,10,23,10,54,8.20
2018,10,23,10,55,8.20
2018,10,23,10,56,8.20
2018,10,23,10,57,8.20
2018,10,23,10,58,8.20
2018,10,23,10,59,8.20
2018,10,23,11,00,8.30
2018,10,23,11,01,8.30
2018,10,23,11,02,8.30
2018,10,23,11,03,8.30
2018,10,23,11,04,8.30
2018,10,23,11,05,8.30
2018,10,23,11,06,8.30
2018,10,23,11,07,8.40
2018,10,23,11,08,8.40
2018,10,23,11,09,8.40
2018,10,23,11,10,8.40
2018,10,23,11,11,8.40
2018,10,23,11,12,8.40
2018,10,23,11,13,8.40
2018,10,23,11,14,8.40
2018,10,23,11,15,8.40
2018,10,23,11,16,8.40
2018,10,23,11,17,8.40
2018,10,23,11,18,8.50
2018,10,23,11,19,8.50
2018,10,23,11,20,8.60
2018,10,23,11,21,8.60
2018,10,23,11,22,8.60
2018,10,23,11,23,8.60
2018,10,23,11,24,8.60
2018,10,23,11,25,8.60
2018,10,23,11,26,8.60
2018,10,23,11,27,8.70
2018,10,23,11,28,8.70
2018,10,23,11,29,8.70
2018,10,23,11,30,8.70
2018,10,23,11,31,8.70
2018,10,23,11,32,8.70
2018,10,23,11,33,8.80
2018,10,23,11,34,8.80
2018,10,23,11,35,8.80
2018,10,23,11,36,8.80
2018,10,23,11,37,8.80
2018,10,23,11,38,8.80
2018,10,23,11,39,8.80
2018,10,23,11,40,8.90
2018,10,23,11,41,8.90
2018,10,23,11,42,8.90
2018,10,23,11,43,8.90
2018,10,23,11,44,8.90
2018,10,23,11,45,9.00
2018,10,23,11,46,9.00
2018,10,23,11,47,9.00
2018,10,23,11,48,9.00
2018,10,23,11,49,9.00
2018,10,23,11,50,9.00
2018,10,23,11,51,9.00
2018,10,23,11,52,9.00
2018,10,23,11,53,9.00
2018,10,23,11,54,9.00
2018,10,23,11,55,9.10
2018,10,23,11,56,9.10
2018,10,23,11,57,9.10
2018,10,23,11,58,9.10
2018,10,23,11,59,9.10
2018,10,23,12,00,9.10
2018,10,23,12,01,9.20
2018,10,23,12,02,9.20
2018,10,23,12,03,9.20
2018,10,23,12,04,9.20
2018,10,23,12,05,9.20
2018,10,23,12,06,9.30
2018,10,23,12,07,9.30
2018,10,23,12,08,9.30
2018,10,23,12,09,9.30
2018,10,23,12,10,9.40
2018,10,23,12,11,9.40
2018,10,23,12,12,9.40
2018,10,23,12,13,9.50
2018,10,23,12,14,9.50
2018,10,23,12,15,9.60
2018,10,23,12,16,9.60
2018,10,23,12,17,9.60
2018,10,23,12,18,9.60
2018,10,23,12,19,9.60
2018,10,23,12,20,9.60
2018,10,23,12,21,9.70
2018,10,23,12,22,9.70
2018,10,23,12,23,9.70
2018,10,23,12,24,9.70
2018,10,23,12,25,9.70
2018,10,23,12,26,9.70
2018,10,23,12,27,9.80
2018,10,23,12,28,9.80
2018,10,23,12,29,9.80
2018,10,23,12,30,9.80
2018,10,23,12,31,9.90
2018,10,23,12,32,9.80
2018,10,23,12,33,9.80
2018,10,23,12,34,9.90
2018,10,23,12,35,9.90
2018,10,23,12,36,9.90
2018,10,23,12,37,9.90
2018,10,23,12,38,9.90
2018,10,23,12,39,9.90
2018,10,23,12,40,9.90
2018,10,23,12,41,9.90
2018,10,23,12,42,10.00
2018,10,23,12,43,10.00
2018,10,23,12,44,10.00
2018,10,23,12,45,10.00
2018,10,23,12,46,10.10
2018,10,23,12,47,10.10
2018,10,23,12,48,10.10
2018,10,23,12,49,10.10
2018,10,23,12,50,10.10
2018,10,23,12,51,10.20
2018,10,23,12,52,10.20
2018,10,23,12,53,10.20
2018,10,23,12,54,10.30
2018,10,23,12,55,10.30
2018,10,23,12,56,10.30
2018,10,23,12,57,10.30
2018,10,23,12,58,10.30
2018,10,23,12,59,10.30
2018,10,23,13,00,10.30
2018,10,23,13,01,10.40
2018,10,23,13,02,10.40
2018,10,23,13,03,10.40
2018,10,23,13,04,10.40
2018,10,23,13,05,10.40
2018,10,23,13,06,10.50
2018,10,23,13,07,10.50
2018,10,23,13,08,10.50
2018,10,23,13,09,10.50
2018,10,23,13,10,10.60
2018,10,23,13,11,10.60
2018,10,23,13,12,10.60
2018,10,23,13,13,10.60
2018,10,23,13,14,10.60
2018,10,23,13,15,10.60
2018,10,23,13,16,10.60
2018,10,23,13,17,10.70
2018,10,23,13,18,10.70
2018,10,23,13,19,10.70
2018,10,23,13,20,10.70
2018,10,23,13,21,10.70
2018,10,23,13,22,10.70
2018,10,23,13,23,10.70
2018,10,23,13,24,10.80
2018,10,23,13,25,10.80
2018,10,23,13,26,10.80
2018,10,23,13,27,10.80
2018,10,23,13,28,10.80
2018,10,23,13,29,10.80
2018,10,23,13,30,10.80
2018,10,23,13,31,10.90
2018,10,23,13,32,10.90
2018,10,23,13,33,10.90
2018,10,23,13,34,10.90
2018,10,23,13,35,10.90
2018,10,23,13,36,10.90
2018,10,23,13,37,10.90
2018,10,23,13,38,10.90
2018,10,23,13,39,10.90
2018,10,23,13,40,10.90
2018,10,23,13,41,10.90
2018,10,23,13,42,10.90
2018,10,23,13,43,10.90
2018,10,23,13,44,10.90
2018,10,23,13,45,10.90
2018,10,23,13,46,10.90
2018,10,23,13,47,10.90
2018,10,23,13,48,10.90
2018,10,23,13,49,10.90
2018,10,23,13,50,10.90
2018,10,23,13,51,10.90
2018,10,23,13,52,10.90
2018,10,23,13,53,10.90
2018,10,23,13,54,11.00
2018,10,23,13,55,11.00
2018,10,23,13,56,11.00
2018,10,23,13,57,11.00
2018,10,23,13,58,11.00
2018,10,23,13,59,11.00
2018,10,23,14,00,11.10
2018,10,23,14,01,11.10
2018,10,23,14,02,11.10
2018,10,23,14,03,11.10
2018,10,23,14,04,11.10
2018,10,23,14,05,11.10
2018,10,23,14,06,11.10
2018,10,23,14,07,11.10
2018,10,23,14,08,11.10
2018,10,23,14,09,11.10
2018,10,23,14,10,11.10
2018,10,23,14,11,11.10
2018,10,23,14,12,11.10
2018,10,23,14,13,11.10
2018,10,23,14,14,11.10
2018,10,23,14,15,11.20
2018,10,23,14,16,11.20
2018,10,23,14,17,11.20
2018,10,23,14,18,11.20
2018,10,23,14,19,11.20
2018,10,23,14,20,11.20
2018,10,23,14,21,11.20
2018,10,23,14,22,11.20
2018,10,23,14,23,11.20
2018,10,23,14,24,11.20
2018,10,23,14,25,11.20
2018,10,23,14,26,11.30
2018,10,23,14,27,11.30
2018,10,23,14,28,11.30
2018,10,23,14,29,11.30
2018,10,23,14,30,11.30
2018,10,23,14,31,11.30
2018,10,23,14,32,11.20
2018,10,23,14,33,11.20
2018,10,23,14,34,11.20
2018,10,23,14,35,11.20
2018,10,23,14,36,11.20
2018,10,23,14,37,11.10
2018,10,23,14,38,11.10
2018,10,23,14,39,11.10
2018,10,23,14,40,11.00
2018,10,23,14,41,11.00
2018,10,23,14,42,11.00
2018,10,23,14,43,11.00
2018,10,23,14,44,11.00
2018,10,23,14,45,11.00
2018,10,23,14,46,10.90
2018,10,23,14,47,10.90
2018,10,23,14,48,10.90
2018,10,23,14,49,10.90
2018,10,23,14,50,10.90
2018,10,23,14,51,10.90
2018,10,23,14,52,10.90
2018,10,23,14,53,10.90
2018,10,23,14,54,10.90
2018,10,23,14,55,10.90
2018,10,23,14,56,10.90
2018,10,23,14,57,10.90
2018,10,23,14,58,10.80
2018,10,23,14,59,10.80
2018,10,23,15,00,10.80
2018,10,23,15,01,10.80
2018,10,23,15,02,10.80
2018,10,23,15,03,10.80
2018,10,23,15,04,10.80
2018,10,23,15,05,10.80
2018,10,23,15,06,10.80
2018,10,23,15,07,10.80
2018,10,23,15,08,10.80
2018,10,23,15,09,10.80
2018,10,23,15,10,10.90
2018,10,23,15,11,10.90
2018,10,23,15,12,10.90
2018,10,23,15,13,10.90
2018,10,23,15,14,10.90
2018,10,23,15,15,10.90
2018,10,23,15,16,10.90
2018,10,23,15,17,10.90
2018,10,23,15,18,10.90
2018,10,23,15,19,10.90
2018,10,23,15,20,10.90
2018,10,23,15,21,10.90
2018,10,23,15,22,10.90
2018,10,23,15,23,10.90
2018,10,23,15,24,10.90
2018,10,23,15,25,10.90
2018,10,23,15,26,10.90
2018,10,23,15,27,10.90
2018,10,23,15,28,10.90
2018,10,23,15,29,11.00
2018,10,23,15,30,11.00
2018,10,23,15,31,11.00
2018,10,23,15,32,11.00
2018,10,23,15,33,11.00
2018,10,23,15,34,11.00
2018,10,23,15,35,11.00
2018,10,23,15,36,11.00
2018,10,23,15,37,11.00
2018,10,23,15,38,11.00
2018,10,23,15,39,11.10
2018,10,23,15,40,11.10
2018,10,23,15,41,11.10
2018,10,23,15,42,11.10
2018,10,23,15,43,11.10
2018,10,23,15,44,11.10
2018,10,23,15,45,11.10
2018,10,23,15,46,11.10
2018,10,23,15,47,11.10
2018,10,23,15,48,11.10
2018,10,23,15,49,11.10
2018,10,23,15,50,11.10
2018,10,23,15,51,11.10
2018,10,23,15,52,11.10
2018,10,23,15,53,11.10
2018,10,23,15,54,11.10
2018,10,23,15,55,11.10
2018,10,23,15,56,11.10
2018,10,23,15,57,11.10
2018,10,23,15,58,11.10
2018,10,23,15,59,11.10
2018,10,23,16,00,11.10
2018,10,23,16,01,11.10
2018,10,23,16,02,11.10
2018,10,23,16,03,11.10
2018,10,23,16,04,11.10
2018,10,23,16,05,11.10
2018,10,23,16,06,11.10
2018,10,23,16,07,11.10
2018,10,23,16,08,11.10
2018,10,23,16,09,11.20
2018,10,23,16,10,11.20
2018,10,23,16,11,11.20
2018,10,23,16,12,11.20
2018,10,23,16,13,11.20
2018,10,23,16,14,11.20
2018,10,23,16,15,11.20
2018,10,23,16,16,11.20
2018,10,23,16,17,11.20
2018,10,23,16,18,11.20
2018,10,23,16,19,11.20
2018,10,23,16,20,11.20
2018,10,23,16,21,11.20
2018,10,23,16,22,11.30
2018,10,23,16,23,11.30
2018,10,23,16,24,11.30
2018,10,23,16,25,11.30
2018,10,23,16,26,11.30
2018,10,23,16,27,11.30
2018,10,23,16,28,11.30
2018,10,23,16,29,11.30
2018,10,23,16,30,11.30
2018,10,23,16,31,11.30
2018,10,23,16,32,11.30
2018,10,23,16,33,11.30
2018,10,23,16,34,11.30
2018,10,23,16,35,11.30
2018,10,23,16,36,11.30
2018,10,23,16,37,11.30
2018,10,23,16,38,11.30
2018,10,23,16,39,11.30
2018,10,23,16,40,11.30
2018,10,23,16,41,11.30
2018,10,23,16,42,11.30
2018,10,23,16,43,11.30
2018,10,23,16,44,11.30
2018,10,23,16,45,11.40
2018,10,23,16,46,11.40
2018,10,23,16,47,11.40
2018,10,23,16,48,11.40
2018,10,23,16,49,11.40
2018,10,23,16,50,11.40
2018,10,23,16,51,11.40
2018,10,23,16,52,11.40
2018,10,23,16,53,11.40
2018,10,23,16,54,11.40
2018,10,23,16,55,11.40
2018,10,23,16,56,11.40
2018,10,23,16,57,11.40
2018,10,23,16,58,11.40
2018,10,23,16,59,11.40
2018,10,23,17,00,11.40
2018,10,23,17,01,11.40
2018,10,23,17,02,11.40
2018,10,23,17,03,11.40
2018,10,23,17,04,11.40
2018,10,23,17,05,11.40
2018,10,23,17,06,11.50
2018,10,23,17,07,11.50
2018,10,23,17,08,11.50
2018,10,23,17,09,11.50
2018,10,23,17,10,11.50
2018,10,23,17,11,11.50
2018,10,23,17,12,11.50
2018,10,23,17,13,11.50
2018,10,23,17,14,11.50
2018,10,23,17,15,11.50
2018,10,23,17,16,11.50
2018,10,23,17,17,11.50
2018,10,23,17,18,11.60
2018,10,23,17,19,11.60
2018,10,23,17,20,11.60
2018,10,23,17,21,11.60
2018,10,23,17,22,11.60
2018,10,23,17,23,11.60
2018,10,23,17,24,11.60
2018,10,23,17,25,11.60
2018,10,23,17,26,11.60
2018,10,23,17,27,11.60
2018,10,23,17,28,11.60
2018,10,23,17,29,11.60
2018,10,23,17,30,11.60
2018,10,23,17,31,11.50
2018,10,23,17,32,11.50
2018,10,23,17,33,11.50
2018,10,23,17,34,11.50
2018,10,23,17,35,11.50
2018,10,23,17,36,11.50
2018,10,23,17,37,11.50
2018,10,23,17,38,11.50
2018,10,23,17,39,11.50
2018,10,23,17,40,11.50
2018,10,23,17,41,11.50
2018,10,23,17,42,11.60
2018,10,23,17,43,11.60
2018,10,23,17,44,11.60
2018,10,23,17,45,11.60
2018,10,23,17,46,11.60
2018,10,23,17,47,11.60
2018,10,23,17,48,11.60
2018,10,23,17,49,11.60
2018,10,23,17,50,11.60
2018,10,23,17,51,11.60
2018,10,23,17,52,11.60
2018,10,23,17,53,11.60
2018,10,23,17,54,11.60
2018,10,23,17,55,11.60
2018,10,23,17,56,11.60
2018,10,23,17,57,11.60
2018,10,23,17,58,11.60
2018,10,23,17,59,11.60
2018,10,23,18,00,11.60
2018,10,23,18,01,11.60
2018,10,23,18,02,11.60
2018,10,23,18,03,11.60
2018,10,23,18,04,11.60
2018,10,23,18,05,11.60
2018,10,23,18,06,11.60
2018,10,23,18,07,11.60
2018,10,23,18,08,11.60
2018,10,23,18,09,11.60
2018,10,23,18,10,11.60
2018,10,23,18,11,11.60
2018,10,23,18,12,11.60
2018,10,23,18,13,11.60
2018,10,23,18,14,11.60
2018,10,23,18,15,11.50
2018,10,23,18,16,11.50
2018,10,23,18,17,11.50
2018,10,23,18,18,11.50
2018,10,23,18,19,11.50
2018,10,23,18,20,11.50
2018,10,23,18,21,11.50
2018,10,23,18,22,11.50
2018,10,23,18,23,11.50
2018,10,23,18,24,11.50
2018,10,23,18,25,11.50
2018,10,23,18,26,11.40
2018,10,23,18,27,11.40
2018,10,23,18,28,11.40
2018,10,23,18,29,11.40
2018,10,23,18,30,11.40
2018,10,23,18,31,11.40
2018,10,23,18,32,11.40
2018,10,23,18,33,11.40
2018,10,23,18,34,11.40
2018,10,23,18,35,11.30
2018,10,23,18,36,11.30
2018,10,23,18,37,11.30
2018,10,23,18,38,11.30
2018,10,23,18,39,11.30
2018,10,23,18,40,11.30
2018,10,23,18,41,11.30
2018,10,23,18,42,11.30
2018,10,23,18,43,11.30
2018,10,23,18,44,11.30
2018,10,23,18,45,11.30
2018,10,23,18,46,11.30
2018,10,23,18,47,11.30
2018,10,23,18,48,11.30
2018,10,23,18,49,11.40
2018,10,23,18,50,11.40
2018,10,23,18,51,11.40
2018,10,23,18,52,11.40
2018,10,23,18,53,11.40
2018,10,23,18,54,11.40
2018,10,23,18,55,11.40
2018,10,23,18,56,11.40
2018,10,23,18,57,11.40
2018,10,23,18,58,11.40
2018,10,23,18,59,11.40
2018,10,23,19,00,11.40
2018,10,23,19,01,11.40
2018,10,23,19,02,11.40
2018,10,23,19,03,11.40
2018,10,23,19,04,11.50
2018,10,23,19,05,11.50
2018,10,23,19,06,11.40
2018,10,23,19,07,11.40
2018,10,23,19,08,11.40
2018,10,23,19,09,11.40
2018,10,23,19,10,11.40
2018,10,23,19,11,11.40
2018,10,23,19,12,11.40
2018,10,23,19,13,11.40
2018,10,23,19,14,11.40
2018,10,23,19,15,11.40
2018,10,23,19,16,11.40
2018,10,23,19,17,11.40
2018,10,23,19,18,11.40
2018,10,23,19,19,11.40
2018,10,23,19,20,11.40
2018,10,23,19,21,11.40
2018,10,23,19,22,11.40
2018,10,23,19,23,11.40
2018,10,23,19,24,11.40
2018,10,23,19,25,11.40
2018,10,23,19,26,11.40
2018,10,23,19,27,11.40
2018,10,23,19,28,11.40
2018,10,23,19,29,11.40
2018,10,23,19,30,11.40
2018,10,23,19,31,11.40
2018,10,23,19,32,11.40
2018,10,23,19,33,11.40
2018,10,23,19,34,11.40
2018,10,23,19,35,11.40
2018,10,23,19,36,11.40
2018,10,23,19,37,11.40
2018,10,23,19,38,11.40
2018,10,23,19,39,11.40
2018,10,23,19,40,11.40
2018,10,23,19,41,11.40
2018,10,23,19,42,11.40
2018,10,23,19,43,11.40
2018,10,23,19,44,11.40
2018,10,23,19,45,11.40
2018,10,23,19,46,11.40
2018,10,23,19,47,11.40
2018,10,23,19,48,11.40
2018,10,23,19,49,11.40
2018,10,23,19,50,11.40
2018,10,23,19,51,11.40
2018,10,23,19,52,11.40
2018,10,23,19,53,11.40
2018,10,23,19,54,11.40
2018,10,23,19,55,11.40
2018,10,23,19,56,11.40
2018,10,23,19,57,11.40
2018,10,23,19,58,11.40
2018,10,23,19,59,11.40
2018,10,23,20,00,11.40
2018,10,23,20,01,11.40
2018,10,23,20,02,11.40
2018,10,23,20,03,11.40
2018,10,23,20,04,11.40
2018,10,23,20,05,11.40
2018,10,23,20,06,11.40
2018,10,23,20,07,11.40
2018,10,23,20,08,11.40
2018,10,23,20,09,11.40
2018,10,23,20,10,11.40
2018,10,23,20,11,11.40
2018,10,23,20,12,11.40
2018,10,23,20,13,11.40
2018,10,23,20,14,11.40
2018,10,23,20,15,11.40
2018,10,23,20,16,11.40
2018,10,23,20,17,11.40
2018,10,23,20,18,11.40
2018,10,23,20,19,11.40
2018,10,23,20,20,11.40
2018,10,23,20,21,11.30
2018,10,23,20,22,11.30
2018,10,23,20,23,11.30
2018,10,23,20,24,11.30
2018,10,23,20,25,11.30
2018,10,23,20,26,11.30
2018,10,23,20,27,11.30
2018,10,23,20,28,11.30
2018,10,23,20,29,11.30
2018,10,23,20,30,11.30
2018,10,23,20,31,11.30
2018,10,23,20,32,11.30
2018,10,23,20,33,11.30
2018,10,23,20,34,11.30
2018,10,23,20,35,11.30
2018,10,23,20,36,11.30
2018,10,23,20,37,11.30
2018,10,23,20,38,11.30
2018,10,23,20,39,11.20
2018,10,23,20,40,11.20
2018,10,23,20,41,11.20
2018,10,23,20,42,11.20
2018,10,23,20,43,11.20
2018,10,23,20,44,11.20
2018,10,23,20,45,11.20
2018,10,23,20,46,11.20
2018,10,23,20,47,11.20
2018,10,23,20,48,11.20
2018,10,23,20,49,11.20
2018,10,23,20,50,11.20
2018,10,23,20,51,11.20
2018,10,23,20,52,11.20
2018,10,23,20,53,11.20
2018,10,23,20,54,11.20
2018,10,23,20,55,11.20
2018,10,23,20,56,11.20
2018,10,23,20,57,11.10
2018,10,23,20,58,11.10
2018,10,23,20,59,11.10
2018,10,23,21,00,11.10
2018,10,23,21,01,11.10
2018,10,23,21,02,11.10
2018,10,23,21,03,11.10
2018,10,23,21,04,11.10
2018,10,23,21,05,11.10
2018,10,23,21,06,11.10
2018,10,23,21,07,11.10
2018,10,23,21,08,11.00
2018,10,23,21,09,11.00
2018,10,23,21,10,11.00
2018,10,23,21,11,11.00
2018,10,23,21,12,11.00
2018,10,23,21,13,11.00
2018,10,23,21,14,10.90
2018,10,23,21,15,10.90
2018,10,23,21,16,10.90
2018,10,23,21,17,10.90
2018,10,23,21,18,10.90
2018,10,23,21,19,11.00
2018,10,23,21,20,11.00
2018,10,23,21,21,11.00
2018,10,23,21,22,11.00
2018,10,23,21,23,11.00
2018,10,23,21,24,11.00
2018,10,23,21,25,11.00
2018,10,23,21,26,11.00
2018,10,23,21,27,11.00
2018,10,23,21,28,11.00
2018,10,23,21,29,11.00
2018,10,23,21,30,10.90
2018,10,23,21,31,11.00
2018,10,23,21,32,11.00
2018,10,23,21,33,10.90
2018,10,23,21,34,10.90
2018,10,23,21,35,10.90
2018,10,23,21,36,10.90
2018,10,23,21,37,10.90
2018,10,23,21,38,10.90
2018,10,23,21,39,10.90
2018,10,23,21,40,10.90
2018,10,23,21,41,10.80
2018,10,23,21,42,10.80
2018,10,23,21,43,10.80
2018,10,23,21,44,10.80
2018,10,23,21,45,10.80
2018,10,23,21,46,10.80
2018,10,23,21,47,10.80
2018,10,23,21,48,10.70
2018,10,23,21,49,10.80
2018,10,23,21,50,10.70
2018,10,23,21,51,10.70
2018,10,23,21,52,10.70
2018,10,23,21,53,10.70
2018,10,23,21,54,10.70
2018,10,23,21,55,10.70
2018,10,23,21,56,10.60
2018,10,23,21,57,10.60
2018,10,23,21,58,10.60
2018,10,23,21,59,10.60
2018,10,23,22,00,10.60
2018,10,23,22,01,10.60
2018,10,23,22,02,10.60
2018,10,23,22,03,10.60